Location: *
(58.7167°N, 26.1833°E)
Time: 01:28:46
(UTC+00:00)

Cosmos 405 Rocket - Pass Details

Date: 25 August 2019
Orbit: 491 x 554 km, 81.3° (Epoch: 22 October)

Event Time Altitude Azimuth Distance (km) Brightness Sun altitude
Exits shadow 23:01:21 25° 268° (W) 1,050 4.1 -20.1°
Maximum altitude 23:02:24 29° 298° (WNW) 947 4.1 -20.1°
Drops below altitude 10° 23:05:45 10° 0° (N) 1,719 6.5 -20.0°
Sets 23:08:04 0° 12° (NNE) 2,601 7.9 -19.9°
